| time (UTC) | temp F | wind direction | speed knots | gust knots | rain 1hr in | rain 24hr in | rain mn in | humidity % | barometer mb |
| 20260506192815 | 0 | 0.0 | 0.0 | 0.18 | 1.06 | 1.06 | 1002.5 | ||
| 20260506192323 | 44 | 315 | 1.7 | 9.6 | 0.20 | 1.06 | 1.06 | 96 | 1002.5 |
| 20260506191830 | 44 | 315 | 1.7 | 9.6 | 0.22 | 1.06 | 1.06 | 96 | 1002.5 |
| 20260506191319 | 44 | 275 | 1.7 | 9.6 | 0.24 | 1.06 | 1.06 | 96 | 1002.4 |
| 20260506190814 | 44 | 302 | 2.6 | 6.1 | 0.23 | 1.03 | 1.03 | 96 | 1002.4 |
| 20260506190323 | 44 | 308 | 2.6 | 9.6 | 0.20 | 0.99 | 0.99 | 96 | 1002.4 |
| 20260506185831 | 44 | 49 | 2.6 | 10.4 | 0.19 | 0.97 | 0.97 | 95 | 1002.4 |
| 20260506185338 | 44 | 355 | 6.1 | 10.4 | 0.18 | 0.95 | 0.95 | 95 | 1002.4 |
| 20260506184822 | 44 | 338 | 5.2 | 9.6 | 0.18 | 0.93 | 0.93 | 96 | 1002.4 |
| 20260506184345 | 44 | 336 | 3.5 | 7.8 | 0.20 | 0.92 | 0.92 | 96 | 1002.5 |
| 20260506183827 | 44 | 15 | 2.6 | 8.7 | 0.19 | 0.91 | 0.91 | 96 | 1002.5 |
| 20260506183337 | 44 | 290 | 5.2 | 12.2 | 0.20 | 0.90 | 0.90 | 95 | 1002.5 |
| 20260506182853 | 44 | 323 | 7.0 | 12.2 | 0.19 | 0.88 | 0.88 | 95 | 1002.5 |
| 20260506182332 | 45 | 306 | 4.3 | 10.4 | 0.18 | 0.85 | 0.85 | 95 | 1002.5 |
| 20260506181822 | 45 | 360 | 4.3 | 10.4 | 0.18 | 0.83 | 0.83 | 95 | 1002.5 |
| 20260506181350 | 45 | 360 | 6.1 | 10.4 | 0.18 | 0.82 | 0.82 | 95 | 1002.1 |
| 20260506180845 | 45 | 342 | 3.5 | 10.4 | 0.18 | 0.80 | 0.80 | 95 | 1002.1 |
| 20260506180314 | 45 | 347 | 6.1 | 12.2 | 0.18 | 0.79 | 0.79 | 95 | 1002.1 |
| 20260506175821 | 46 | 348 | 6.1 | 12.2 | 0.18 | 0.78 | 0.78 | 95 | 1002.6 |
| 20260506175345 | 46 | 148 | 2.6 | 11.3 | 0.18 | 0.77 | 0.77 | 96 | 1002.6 |
| 20260506174816 | 46 | 325 | 5.2 | 11.3 | 0.16 | 0.74 | 0.74 | 96 | 1002.6 |
| 20260506174338 | 46 | 26 | 3.5 | 6.1 | 0.16 | 0.72 | 0.72 | 96 | 1002.1 |
| 20260506173844 | 46 | 343 | 1.7 | 4.3 | 0.17 | 0.72 | 0.72 | 96 | 1002.1 |
| 20260506173312 | 46 | 344 | 1.7 | 5.2 | 0.16 | 0.70 | 0.70 | 96 | 1002.1 |
| 20260506172821 | 46 | 292 | 2.6 | 5.2 | 0.15 | 0.68 | 0.68 | 96 | 1002.5 |
| 20260506172354 | 46 | 300 | 1.7 | 6.1 | 0.14 | 0.67 | 0.67 | 96 | 1002.5 |
| 20260506171844 | 46 | 360 | 3.5 | 6.1 | 0.19 | 0.65 | 0.65 | 96 | 1002.5 |
| 20260506171314 | 46 | 311 | 2.6 | 4.3 | 0.17 | 0.63 | 0.63 | 96 | 1002.6 |
| 20260506170824 | 46 | 45 | 1.7 | 5.2 | 0.16 | 0.62 | 0.62 | 96 | 1002.6 |
| 20260506170332 | 46 | 360 | 3.5 | 7.8 | 0.15 | 0.61 | 0.61 | 96 | 1002.6 |
| 20260506165820 | 46 | 355 | 3.5 | 9.6 | 0.13 | 0.59 | 0.59 | 96 | 1003.1 |
| 20260506165313 | 46 | 5 | 4.3 | 9.6 | 0.12 | 0.58 | 0.58 | 95 | 1003.1 |
| 20260506164819 | 47 | 12 | 3.5 | 8.7 | 0.12 | 0.58 | 0.58 | 95 | 1003.1 |
| 20260506164323 | 47 | 346 | 3.5 | 8.7 | 0.11 | 0.56 | 0.56 | 95 | 1003.0 |
| 20260506163815 | 48 | 321 | 3.5 | 5.2 | 0.12 | 0.55 | 0.55 | 96 | 1003.0 |
| 20260506163343 | 48 | 355 | 2.6 | 5.2 | 0.12 | 0.54 | 0.54 | 96 | 1003.0 |
| 20260506162826 | 48 | 337 | 1.7 | 3.5 | 0.12 | 0.53 | 0.53 | 96 | 1003.0 |
| 20260506162318 | 48 | 355 | 284.2 | 1.7 | 0.12 | 0.52 | 0.52 | 96 | 1003.0 |
| 20260506161827 | 0 | 0.0 | 0.0 | 0.08 | 0.46 | 0.46 | 1003.0 | ||
| 20260506161344 | 0 | 0.0 | 0.0 | 0.09 | 0.46 | 0.46 | 1003.1 | ||
| 20260506160814 | 0 | 0.0 | 0.0 | 0.10 | 0.46 | 0.46 | 1003.1 | ||
| 20260506160340 | 49 | 314 | 1.7 | 4.3 | 0.11 | 0.46 | 0.46 | 96 | 1003.1 |
| 20260506155824 | 49 | 314 | 1.7 | 4.3 | 0.13 | 0.46 | 0.46 | 96 | 1003.3 |
| 20260506155316 | 49 | 336 | 1.7 | 4.3 | 0.15 | 0.46 | 0.46 | 96 | 1003.3 |
| 20260506154843 | 49 | 336 | 1.7 | 3.5 | 0.17 | 0.46 | 0.46 | 96 | 1003.3 |
| 20260506154327 | 49 | 355 | 0.0 | 0.9 | 0.18 | 0.45 | 0.45 | 96 | 1003.2 |
| 20260506153815 | 49 | 355 | 0.0 | 1.7 | 0.18 | 0.43 | 0.43 | 96 | 1003.2 |
| 20260506153359 | 49 | 355 | 0.0 | 1.7 | 0.19 | 0.42 | 0.42 | 95 | 1003.2 |
| 20260506152812 | 49 | 355 | 0.0 | 1.7 | 0.19 | 0.41 | 0.41 | 96 | 1003.5 |
| 20260506152324 | 49 | 355 | 0.9 | 1.7 | 0.18 | 0.39 | 0.39 | 96 | 1003.5 |
| 20260506151839 | 49 | 355 | 0.0 | 1.7 | 0.19 | 0.38 | 0.38 | 96 | 1003.5 |
| 20260506151327 | 49 | 355 | 0.9 | 1.7 | 0.20 | 0.37 | 0.37 | 96 | 1003.7 |
| 20260506150835 | 50 | 355 | 0.0 | 1.7 | 0.19 | 0.36 | 0.36 | 96 | 1003.7 |
| 20260506150339 | 50 | 355 | 0.0 | 2.6 | 0.18 | 0.34 | 0.34 | 96 | 1003.7 |
| 20260506145816 | 50 | 355 | 0.9 | 4.3 | 0.18 | 0.33 | 0.33 | 96 | 1004.2 |
| 20260506145324 | 50 | 325 | 1.7 | 4.3 | 0.16 | 0.31 | 0.31 | 96 | 1004.2 |
| 20260506144833 | 50 | 306 | 1.7 | 4.3 | 0.15 | 0.29 | 0.29 | 95 | 1004.2 |
| 20260506144339 | 50 | 319 | 1.7 | 3.5 | 0.13 | 0.27 | 0.27 | 95 | 1004.2 |
| 20260506143812 | 50 | 306 | 1.7 | 4.3 | 0.12 | 0.25 | 0.25 | 95 | 1004.2 |
| 20260506143320 | 51 | 350 | 2.6 | 5.2 | 0.11 | 0.23 | 0.23 | 95 | 1004.2 |
| 20260506142828 | 51 | 342 | 1.7 | 5.2 | 0.11 | 0.22 | 0.22 | 95 | 1004.2 |
| 20260506142329 | 52 | 301 | 1.7 | 3.5 | 0.10 | 0.20 | 0.20 | 96 | 1004.2 |
| 20260506141824 | 52 | 342 | 0.9 | 3.5 | 0.08 | 0.17 | 0.17 | 96 | 1004.2 |
| 20260506141329 | 52 | 342 | 0.9 | 3.5 | 0.08 | 0.17 | 0.17 | 96 | 1004.0 |
| 20260506140823 | 52 | 342 | 0.9 | 2.6 | 0.08 | 0.16 | 0.16 | 96 | 1004.0 |
| 20260506140333 | 52 | 325 | 0.9 | 2.6 | 0.08 | 0.15 | 0.15 | 96 | 1004.0 |
| 20260506135844 | 52 | 313 | 0.9 | 3.5 | 0.08 | 0.15 | 0.15 | 96 | 1003.9 |
| 20260506135318 | 52 | 334 | 1.7 | 3.5 | 0.09 | 0.15 | 0.15 | 96 | 1003.9 |
| 20260506134822 | 52 | 304 | 0.9 | 2.6 | 0.08 | 0.14 | 0.14 | 96 | 1003.9 |
| 20260506134325 | 53 | 311 | 0.9 | 2.6 | 0.08 | 0.13 | 0.13 | 96 | 1003.7 |
| 20260506133854 | 53 | 336 | 0.9 | 3.5 | 0.08 | 0.13 | 0.13 | 95 | 1003.7 |
| 20260506133325 | 53 | 311 | 1.7 | 3.5 | 0.08 | 0.12 | 0.12 | 96 | 1003.7 |
| 20260506132832 | 53 | 306 | 0.0 | 2.6 | 0.07 | 0.11 | 0.11 | 96 | 1003.8 |
| 20260506132341 | 53 | 322 | 0.9 | 3.5 | 0.07 | 0.10 | 0.10 | 96 | 1003.8 |
| 20260506131814 | 53 | 325 | 0.9 | 3.5 | 0.06 | 0.09 | 0.09 | 96 | 1003.8 |
| 20260506131325 | 53 | 350 | 0.9 | 2.6 | 0.05 | 0.08 | 0.08 | 96 | 1004.0 |
| 20260506130850 | 53 | 323 | 1.7 | 2.6 | 0.05 | 0.08 | 0.08 | 96 | 1004.0 |
| 20260506130350 | 53 | 283 | 0.0 | 3.5 | 0.04 | 0.07 | 0.07 | 96 | 1004.0 |
| 20260506125835 | 53 | 5 | 1.7 | 4.3 | 0.04 | 0.07 | 0.07 | 96 | 1004.2 |
| 20260506125330 | 53 | 308 | 1.7 | 4.3 | 0.04 | 0.06 | 0.06 | 95 | 1004.2 |
| 20260506124839 | 53 | 307 | 2.6 | 4.3 | 0.04 | 0.06 | 0.06 | 95 | 1004.2 |
| 20260506124330 | 53 | 290 | 1.7 | 6.1 | 0.03 | 0.05 | 0.05 | 95 | 1004.7 |
| 20260506123819 | 53 | 349 | 2.6 | 7.0 | 0.02 | 0.04 | 0.04 | 95 | 1004.7 |
| 20260506123345 | 54 | 308 | 2.6 | 7.0 | 0.02 | 0.04 | 0.04 | 95 | 1004.7 |
| 20260506122835 | 54 | 24 | 3.5 | 4.3 | 0.02 | 0.04 | 0.04 | 95 | 1004.4 |
| 20260506122311 | 54 | 342 | 2.6 | 4.3 | 0.01 | 0.03 | 0.03 | 95 | 1004.4 |
| 20260506121825 | 54 | 319 | 1.7 | 3.5 | 0.01 | 0.03 | 0.03 | 95 | 1004.4 |
| 20260506121333 | 55 | 340 | 1.7 | 4.3 | 0.01 | 0.03 | 0.03 | 96 | 1003.9 |
| 20260506120829 | 55 | 15 | 1.7 | 4.3 | 0.01 | 0.03 | 0.03 | 96 | 1003.9 |
| 20260506120334 | 55 | 355 | 0.9 | 3.5 | 0.01 | 0.03 | 0.03 | 96 | 1003.9 |
| 20260506115838 | 55 | 336 | 1.7 | 4.3 | 0.01 | 0.03 | 0.03 | 96 | 1004.1 |
| 20260506115330 | 55 | 290 | 2.6 | 5.2 | 0.00 | 0.02 | 0.02 | 96 | 1004.1 |
| 20260506114821 | 55 | 304 | 2.6 | 5.2 | 0.00 | 0.02 | 0.02 | 96 | 1004.1 |
| 20260506114318 | 55 | 300 | 0.0 | 2.6 | 0.00 | 0.02 | 0.02 | 96 | 1004.1 |
| 20260506113843 | 55 | 300 | 0.0 | 2.6 | 0.00 | 0.02 | 0.02 | 96 | 1004.1 |
| 20260506113347 | 55 | 324 | 0.0 | 2.6 | 0.00 | 0.02 | 0.02 | 96 | 1004.1 |
| 20260506112821 | 55 | 324 | 0.0 | 2.6 | 0.00 | 0.02 | 0.02 | 96 | 1003.8 |
| 20260506112315 | 54 | 324 | 0.0 | 2.6 | 0.00 | 0.02 | 0.02 | 96 | 1003.8 |
| 20260506111823 | 54 | 103 | 0.9 | 2.6 | 0.00 | 0.02 | 0.02 | 96 | 1003.8 |
| 20260506111314 | 54 | 103 | 0.0 | 2.6 | 0.00 | 0.02 | 0.02 | 96 | 1004.2 |
| 20260506110819 | 54 | 90 | 0.0 | 0.0 | 0.00 | 0.02 | 0.02 | 96 | 1004.2 |
| 20260506110331 | 54 | 90 | 0.0 | 0.0 | 0.00 | 0.02 | 0.02 | 96 | 1004.2 |
| 20260506105842 | 54 | 90 | 0.0 | 0.0 | 0.00 | 0.02 | 0.02 | 96 | 1003.7 |
| 20260506105342 | 54 | 90 | 0.0 | 0.0 | 0.00 | 0.02 | 0.02 | 96 | 1003.7 |
| 20260506104810 | 54 | 90 | 0.0 | 0.0 | 0.00 | 0.02 | 0.02 | 96 | 1003.7 |
| 20260506104346 | 54 | 90 | 0.0 | 0.0 | 0.00 | 0.02 | 0.02 | 95 | 1003.6 |
| 20260506103814 | 54 | 90 | 0.0 | 0.0 | 0.00 | 0.02 | 0.02 | 95 | 1003.6 |
| 20260506103344 | 54 | 90 | 0.0 | 0.0 | 0.00 | 0.02 | 0.02 | 95 | 1003.6 |
| 20260506102829 | 54 | 90 | 0.0 | 0.0 | 0.00 | 0.02 | 0.02 | 96 | 1003.6 |
| 20260506102326 | 54 | 90 | 0.0 | 0.0 | 0.00 | 0.02 | 0.02 | 95 | 1003.6 |
| 20260506101813 | 54 | 90 | 0.0 | 0.0 | 0.00 | 0.02 | 0.02 | 95 | 1003.6 |
| 20260506101323 | 54 | 90 | 0.0 | 0.0 | 0.00 | 0.02 | 0.02 | 95 | 1003.5 |
| 20260506100832 | 54 | 90 | 0.0 | 0.0 | 0.00 | 0.02 | 0.02 | 95 | 1003.5 |
| 20260506100314 | 53 | 90 | 0.0 | 0.0 | 0.00 | 0.02 | 0.02 | 95 | 1003.5 |
| 20260506095818 | 53 | 90 | 0.0 | 0.0 | 0.00 | 0.02 | 0.02 | 95 | 1003.6 |
| 20260506095321 | 53 | 90 | 284.2 | 0.0 | 0.00 | 0.02 | 0.02 | 94 | 1003.6 |
| 20260506094847 | 0 | 0.0 | 0.0 | 0.00 | 0.02 | 0.02 | 1003.6 | ||
| 20260506094332 | 0 | 0.0 | 0.0 | 0.00 | 0.02 | 0.02 | 1003.4 | ||
| 20260506093837 | 0 | 0.0 | 0.0 | 0.00 | 0.02 | 0.02 | 1003.4 | ||
| 20260506093315 | 54 | 90 | 0.0 | 0.0 | 0.00 | 0.02 | 0.02 | 94 | 1003.4 |
| 20260506092823 | 54 | 90 | 0.0 | 0.0 | 0.00 | 0.02 | 0.02 | 94 | 1003.7 |
| 20260506092328 | 54 | 90 | 0.0 | 0.0 | 0.00 | 0.02 | 0.02 | 93 | 1003.7 |
| 20260506091820 | 54 | 90 | 0.0 | 0.0 | 0.00 | 0.02 | 0.02 | 93 | 1003.7 |
| 20260506091326 | 54 | 90 | 0.0 | 0.0 | 0.00 | 0.02 | 0.02 | 93 | 1003.6 |
| 20260506090835 | 54 | 90 | 0.0 | 0.0 | 0.00 | 0.02 | 0.02 | 94 | 1003.6 |
| 20260506090340 | 54 | 90 | 0.0 | 0.0 | 0.00 | 0.02 | 0.02 | 94 | 1003.6 |
| 20260506085814 | 55 | 90 | 0.0 | 0.0 | 0.00 | 0.02 | 0.02 | 94 | 1003.8 |
| 20260506085324 | 55 | 90 | 0.0 | 0.0 | 0.00 | 0.02 | 0.02 | 94 | 1003.8 |
| 20260506084818 | 55 | 90 | 0.0 | 0.0 | 0.00 | 0.02 | 0.02 | 94 | 1003.8 |
| 20260506084319 | 55 | 90 | 0.0 | 0.0 | 0.00 | 0.02 | 0.02 | 94 | 1004.2 |
| 20260506083843 | 55 | 90 | 0.0 | 0.0 | 0.00 | 0.02 | 0.02 | 94 | 1004.2 |
| 20260506083319 | 55 | 90 | 0.0 | 0.0 | 0.00 | 0.02 | 0.02 | 93 | 1004.2 |
| 20260506082812 | 55 | 90 | 0.0 | 0.0 | 0.00 | 0.02 | 0.02 | 93 | 1004.1 |
| 20260506082314 | 56 | 90 | 0.0 | 0.0 | 0.00 | 0.02 | 0.02 | 93 | 1004.1 |
| 20260506081827 | 56 | 90 | 0.0 | 0.0 | 0.00 | 0.02 | 0.02 | 94 | 1004.1 |
| 20260506081407 | 56 | 90 | 0.0 | 0.0 | 0.00 | 0.02 | 0.02 | 94 | 1004.2 |
| 20260506080827 | 56 | 90 | 0.0 | 0.0 | 0.00 | 0.02 | 0.02 | 95 | 1004.2 |
| 20260506080332 | 56 | 90 | 0.0 | 0.0 | 0.00 | 0.02 | 0.02 | 95 | 1004.2 |
| 20260506073315 | 56 | 90 | 0.0 | 0.0 | 0.00 | 0.02 | 0.02 | 94 | 1004.3 |
| 20260506072826 | 56 | 90 | 0.0 | 0.0 | 0.00 | 0.02 | 0.02 | 94 | 1004.4 |
| 20260506072350 | 56 | 90 | 0.0 | 0.0 | 0.00 | 0.02 | 0.02 | 95 | 1004.4 |
| 20260506071817 | 56 | 90 | 284.2 | 0.0 | 0.00 | 0.02 | 0.02 | 94 | 1004.4 |
| 20260506071319 | 0 | 0.0 | 0.0 | 0.00 | 0.02 | 0.02 | 1004.3 | ||
| 20260506070846 | 0 | 0.0 | 0.0 | 0.00 | 0.02 | 0.02 | 1004.3 | ||
| 20260506070331 | 0 | 0.0 | 0.0 | 0.00 | 0.02 | 0.02 | 1004.3 | ||
| 20260506062318 | 57 | 106 | 0.0 | 0.0 | 0.00 | 0.02 | 0.02 | 93 | 1004.5 |
| 20260506061826 | 57 | 106 | 0.0 | 0.0 | 0.00 | 0.02 | 0.02 | 93 | 1004.5 |
| 20260506061353 | 57 | 106 | 0.0 | 1.7 | 0.00 | 0.02 | 0.02 | 93 | 1004.5 |
| 20260506060840 | 57 | 106 | 0.0 | 2.6 | 0.00 | 0.02 | 0.02 | 93 | 1004.5 |
| 20260506060330 | 57 | 106 | 0.9 | 2.6 | 0.00 | 0.02 | 0.02 | 92 | 1004.5 |
| 20260506051318 | 59 | 44 | 0.9 | 1.7 | 0.02 | 0.02 | 0.02 | 91 | 1005.3 |
| 20260506050840 | 59 | 44 | 0.9 | 1.7 | 0.02 | 0.02 | 0.02 | 89 | 1005.3 |
| 20260506050326 | 59 | 102 | 1.7 | 1.7 | 0.02 | 0.02 | 0.02 | 89 | 1005.3 |
| 20260506044830 | 60 | 102 | 0.9 | 1.7 | 0.02 | 0.02 | 0.02 | 86 | 1005.2 |
| 20260506044317 | 60 | 102 | 0.9 | 1.7 | 0.01 | 0.01 | 0.01 | 85 | 1004.8 |
| 20260506043841 | 61 | 102 | 0.0 | 1.7 | 0.00 | 0.00 | 0.00 | 84 | 1004.8 |
| 20260506043315 | 61 | 102 | 0.9 | 1.7 | 0.00 | 0.00 | 0.00 | 83 | 1004.8 |
| 20260506042853 | 61 | 126 | 0.0 | 2.6 | 0.00 | 0.00 | 0.00 | 82 | 1004.8 |
| 20260506042332 | 61 | 126 | 0.9 | 2.6 | 0.00 | 0.00 | 0.00 | 81 | 1004.8 |
| 20260506041816 | 61 | 78 | 0.0 | 1.7 | 0.00 | 0.00 | 0.00 | 80 | 1004.8 |
| 20260506041340 | 61 | 78 | 0.0 | 1.7 | 0.00 | 0.00 | 0.00 | 81 | 1004.8 |
| 20260506040842 | 61 | 151 | 0.9 | 1.7 | 0.00 | 0.00 | 0.00 | 80 | 1004.8 |
| 20260506040326 | 61 | 89 | 0.0 | 0.9 | 0.00 | 0.00 | 0.00 | 80 | 1004.8 |
| 20260506035815 | 61 | 89 | 0.9 | 1.7 | 0.00 | 0.00 | 0.00 | 80 | 1004.6 |
| 20260506035322 | 61 | 89 | 0.9 | 1.7 | 0.00 | 0.00 | 0.00 | 80 | 1004.6 |
| 20260506034820 | 61 | 35 | 0.9 | 1.7 | 0.00 | 0.00 | 0.00 | 80 | 1004.6 |
| 20260506034344 | 61 | 35 | 0.9 | 1.7 | 0.00 | 0.00 | 0.00 | 80 | 1004.6 |
| 20260506033821 | 61 | 107 | 0.9 | 1.7 | 0.00 | 0.00 | 0.00 | 80 | 1004.6 |
| 20260506033333 | 62 | 107 | 0.0 | 1.7 | 0.00 | 0.00 | 0.00 | 78 | 1004.6 |
| 20260506032815 | 62 | 107 | 0.0 | 3.5 | 0.00 | 0.00 | 0.00 | 78 | 1004.3 |
| 20260506032328 | 62 | 129 | 0.9 | 3.5 | 0.00 | 0.00 | 0.00 | 78 | 1004.3 |
| 20260506031815 | 62 | 150 | 0.9 | 3.5 | 0.00 | 0.00 | 0.00 | 76 | 1004.3 |
| 20260506031344 | 62 | 103 | 0.0 | 0.9 | 0.00 | 0.00 | 0.00 | 76 | 1004.2 |
| 20260506030828 | 62 | 103 | 0.0 | 1.7 | 0.00 | 0.00 | 0.00 | 77 | 1004.2 |
| 20260506030325 | 62 | 103 | 0.9 | 2.6 | 0.00 | 0.00 | 0.00 | 75 | 1004.2 |
| 20260506025845 | 62 | 138 | 0.9 | 2.6 | 0.00 | 0.00 | 0.00 | 75 | 1004.2 |
| 20260506025358 | 62 | 147 | 0.9 | 2.6 | 0.00 | 0.00 | 0.00 | 76 | 1004.2 |
| 20260506024833 | 62 | 142 | 1.7 | 2.6 | 0.00 | 0.00 | 0.00 | 76 | 1004.2 |
| 20260506024323 | 62 | 147 | 0.0 | 1.7 | 0.00 | 0.00 | 0.00 | 76 | 1004.2 |
| 20260506023830 | 62 | 147 | 0.0 | 1.7 | 0.00 | 0.00 | 0.00 | 76 | 1004.2 |
| 20260506023339 | 62 | 131 | 1.7 | 1.7 | 0.00 | 0.00 | 0.00 | 75 | 1004.2 |
| 20260506022827 | 62 | 145 | 0.0 | 0.9 | 0.00 | 0.00 | 0.00 | 76 | 1004.2 |
| 20260506022327 | 62 | 228 | 0.0 | 1.7 | 0.00 | 0.00 | 0.00 | 75 | 1004.2 |
| 20260506021816 | 63 | 184 | 0.9 | 3.5 | 0.00 | 0.00 | 0.00 | 75 | 1004.2 |
| 20260506021325 | 63 | 174 | 0.9 | 3.5 | 0.00 | 0.00 | 0.00 | 74 | 1004.1 |
| 20260506020834 | 63 | 161 | 0.9 | 1.7 | 0.00 | 0.00 | 0.00 | 74 | 1004.1 |
| 20260506020313 | 63 | 156 | 0.9 | 3.5 | 0.00 | 0.00 | 0.00 | 75 | 1004.1 |
| 20260506015854 | 63 | 155 | 0.9 | 3.5 | 0.00 | 0.00 | 0.00 | 74 | 1004.0 |
| 20260506015331 | 63 | 165 | 0.9 | 2.6 | 0.00 | 0.00 | 0.00 | 75 | 1004.0 |
| 20260506014843 | 63 | 154 | 1.7 | 4.3 | 0.00 | 0.00 | 0.00 | 75 | 1004.0 |
| 20260506014314 | 63 | 159 | 0.9 | 4.3 | 0.00 | 0.00 | 0.00 | 75 | 1003.8 |
| 20260506013826 | 63 | 131 | 2.6 | 4.3 | 0.00 | 0.00 | 0.00 | 74 | 1003.8 |
| 20260506013352 | 63 | 134 | 1.7 | 5.2 | 0.00 | 0.00 | 0.00 | 74 | 1003.8 |
| 20260506012830 | 63 | 188 | 1.7 | 5.2 | 0.00 | 0.00 | 0.00 | 74 | 1003.7 |
| 20260506012329 | 0 | 0.0 | 0.0 | 0.00 | 0.00 | 0.00 | 1003.7 | ||
| 20260506011816 | 0 | 0.0 | 0.0 | 0.00 | 0.00 | 0.00 | 1003.7 | ||
| 20260506011324 | 0 | 0.0 | 0.0 | 0.00 | 0.00 | 0.00 | 1003.3 | ||
| 20260506010849 | 62 | 221 | 1.7 | 4.3 | 0.00 | 0.00 | 0.00 | 75 | 1003.3 |
| 20260506010346 | 62 | 221 | 1.7 | 4.3 | 0.00 | 0.00 | 0.00 | 75 | 1003.3 |
| 20260506005816 | 62 | 221 | 1.7 | 4.3 | 0.00 | 0.00 | 0.00 | 74 | 1003.0 |
| 20260506005315 | 62 | 150 | 1.7 | 4.3 | 0.00 | 0.00 | 0.00 | 74 | 1003.0 |
| 20260506004825 | 62 | 150 | 1.7 | 4.3 | 0.00 | 0.00 | 0.00 | 73 | 1003.0 |
| 20260506004315 | 62 | 161 | 2.6 | 6.1 | 0.00 | 0.00 | 0.00 | 74 | 1002.7 |
| 20260506003826 | 62 | 140 | 3.5 | 6.1 | 0.00 | 0.00 | 0.00 | 74 | 1002.7 |
| 20260506003329 | 62 | 131 | 2.6 | 7.0 | 0.00 | 0.00 | 0.00 | 75 | 1002.7 |
| 20260506002822 | 62 | 130 | 2.6 | 7.0 | 0.00 | 0.00 | 0.00 | 75 | 1002.8 |
| 20260506002331 | 62 | 142 | 2.6 | 6.1 | 0.00 | 0.00 | 0.00 | 75 | 1002.8 |
| 20260506001817 | 62 | 148 | 2.6 | 3.5 | 0.00 | 0.00 | 0.00 | 75 | 1002.8 |
| 20260506001355 | 62 | 140 | 1.7 | 3.5 | 0.00 | 0.00 | 0.00 | 76 | 1002.8 |
| 20260506000830 | 62 | 136 | 1.7 | 4.3 | 0.00 | 0.00 | 0.00 | 75 | 1002.8 |
| 20260506000325 | 63 | 138 | 1.7 | 4.3 | 0.00 | 0.00 | 0.00 | 74 | 1002.8 |
| 20260505235834 | 63 | 144 | 0.9 | 7.8 | 0.00 | 0.00 | 0.00 | 75 | 1002.6 |
| 20260505235316 | 63 | 147 | 2.6 | 10.4 | 0.00 | 0.00 | 0.00 | 74 | 1002.6 |
| 20260505234822 | 63 | 146 | 4.3 | 10.4 | 0.00 | 0.00 | 0.00 | 74 | 1002.6 |
| 20260505234316 | 62 | 196 | 2.6 | 7.0 | 0.00 | 0.00 | 0.00 | 77 | 1002.6 |
| 20260505233816 | 62 | 146 | 3.5 | 5.2 | 0.00 | 0.00 | 0.00 | 77 | 1002.6 |
| 20260505233331 | 62 | 163 | 2.6 | 6.1 | 0.00 | 0.00 | 0.00 | 76 | 1002.6 |
| 20260505232820 | 63 | 170 | 1.7 | 4.3 | 0.00 | 0.00 | 0.00 | 77 | 1002.6 |
| 20260505232330 | 63 | 164 | 1.7 | 4.3 | 0.00 | 0.00 | 0.00 | 75 | 1002.6 |
| 20260505231843 | 64 | 142 | 1.7 | 4.3 | 0.00 | 0.00 | 0.00 | 75 | 1002.6 |
| 20260505231321 | 64 | 138 | 0.9 | 5.2 | 0.00 | 0.00 | 0.00 | 72 | 1002.8 |
| 20260505230814 | 65 | 126 | 2.6 | 8.7 | 0.00 | 0.00 | 0.00 | 71 | 1002.8 |
| 20260505230319 | 65 | 153 | 2.6 | 8.7 | 0.00 | 0.00 | 0.00 | 68 | 1002.8 |
| 20260505225843 | 65 | 148 | 2.6 | 13.0 | 0.00 | 0.00 | 0.00 | 70 | 1002.9 |
| 20260505225335 | 65 | 141 | 2.6 | 13.0 | 0.00 | 0.00 | 0.00 | 71 | 1002.9 |
| 20260505224820 | 65 | 127 | 4.3 | 9.6 | 0.00 | 0.00 | 0.00 | 71 | 1002.9 |
| 20260505224324 | 65 | 153 | 2.6 | 8.7 | 0.00 | 0.00 | 0.00 | 72 | 1002.7 |
| 20260505223837 | 65 | 175 | 3.5 | 8.7 | 0.00 | 0.00 | 0.00 | 69 | 1002.7 |
| 20260505223328 | 65 | 161 | 3.5 | 6.1 | 0.00 | 0.00 | 0.00 | 69 | 1002.7 |
| 20260505222834 | 65 | 186 | 2.6 | 5.2 | 0.00 | 0.00 | 0.00 | 72 | 1002.3 |
| 20260505222327 | 65 | 150 | 0.9 | 3.5 | 0.00 | 0.00 | 0.00 | 72 | 1002.3 |
| 20260505221818 | 65 | 122 | 1.7 | 3.5 | 0.00 | 0.00 | 0.00 | 70 | 1002.3 |
| 20260505221325 | 66 | 132 | 0.9 | 4.3 | 0.00 | 0.00 | 0.00 | 71 | 1002.1 |
| 20260505220836 | 66 | 115 | 0.9 | 4.3 | 0.00 | 0.00 | 0.00 | 65 | 1002.1 |
| 20260505220315 | 66 | 94 | 1.7 | 3.5 | 0.00 | 0.00 | 0.00 | 66 | 1002.1 |
| 20260505215823 | 66 | 52 | 1.7 | 4.3 | 0.00 | 0.00 | 0.00 | 68 | 1002.6 |
| 20260505215335 | 66 | 9 | 1.7 | 7.0 | 0.00 | 0.00 | 0.00 | 66 | 1002.6 |
| 20260505214824 | 66 | 296 | 4.3 | 7.0 | 0.00 | 0.00 | 0.00 | 66 | 1002.6 |
| 20260505214313 | 66 | 322 | 3.5 | 7.8 | 0.00 | 0.00 | 0.00 | 67 | 1002.6 |
| 20260505213812 | 66 | 346 | 4.3 | 7.8 | 0.00 | 0.00 | 0.00 | 70 | 1002.6 |
| 20260505213320 | 66 | 298 | 3.5 | 5.2 | 0.00 | 0.00 | 0.00 | 70 | 1002.6 |
| 20260505212827 | 67 | 336 | 3.5 | 6.1 | 0.00 | 0.00 | 0.00 | 72 | 1002.0 |
| 20260505212313 | 67 | 236 | 1.7 | 13.0 | 0.00 | 0.00 | 0.00 | 69 | 1002.0 |
| 20260505211814 | 67 | 185 | 3.5 | 13.0 | 0.00 | 0.00 | 0.00 | 70 | 1002.0 |
| 20260505211333 | 67 | 92 | 0.0 | 4.3 | 0.00 | 0.00 | 0.00 | 69 | 1001.0 |
| 20260505210820 | 68 | 80 | 1.7 | 7.0 | 0.00 | 0.00 | 0.00 | 70 | 1001.0 |
| 20260505210333 | 68 | 182 | 2.6 | 7.0 | 0.00 | 0.00 | 0.00 | 66 | 1001.0 |
| 20260505205839 | 67 | 151 | 0.9 | 4.3 | 0.00 | 0.00 | 0.00 | 69 | 1001.1 |
| 20260505205321 | 67 | 129 | 1.7 | 4.3 | 0.00 | 0.00 | 0.00 | 71 | 1001.1 |
| 20260505204834 | 66 | 98 | 1.7 | 4.3 | 0.00 | 0.00 | 0.00 | 73 | 1001.1 |
| 20260505204321 | 66 | 301 | 0.9 | 5.2 | 0.00 | 0.00 | 0.00 | 77 | 1001.0 |
| 20260505203831 | 66 | 247 | 2.6 | 5.2 | 0.00 | 0.00 | 0.00 | 71 | 1001.0 |
| 20260505203326 | 66 | 211 | 2.6 | 5.2 | 0.00 | 0.00 | 0.00 | 74 | 1001.0 |
| 20260505202845 | 65 | 5 | 0.9 | 5.2 | 0.00 | 0.00 | 0.00 | 80 | 1000.2 |
| 20260505202315 | 64 | 15 | 2.6 | 7.0 | 0.00 | 0.00 | 0.00 | 79 | 1000.2 |
| 20260505201829 | 64 | 157 | 2.6 | 7.0 | 0.00 | 0.00 | 0.00 | 77 | 1000.2 |
| 20260505201319 | 0 | 0.0 | 0.0 | 0.00 | 0.00 | 0.00 | 1001.6 | ||
| 20260505200825 | 0 | 0.0 | 0.0 | 0.00 | 0.00 | 0.00 | 1001.6 | ||
| 20260505200317 | 0 | 0.0 | 0.0 | 0.00 | 0.00 | 0.00 | 1001.6 | ||
| 20260505195836 | 72 | 333 | 6.1 | 19.1 | 0.00 | 0.00 | 0.00 | 48 | 1001.5 |
| 20260505194814 | 74 | 28 | 5.2 | 19.1 | 0.00 | 0.00 | 0.00 | 48 | 1001.5 |
| 20260505194326 | 76 | 355 | 2.6 | 7.0 | 0.00 | 0.00 | 0.00 | 44 | 999.4 |
| 20260505193818 | 77 | 30 | 2.6 | 11.3 | 0.00 | 0.00 | 0.00 | 43 | 999.4 |
| 20260505193348 | 77 | 113 | 2.6 | 13.0 | 0.00 | 0.00 | 0.00 | 41 | 999.4 |